TimeCST,TemperatureF,Dew PointF,Humidity,Sea Level PressureIn,VisibilityMPH,Wind Direction,Wind SpeedMPH,Gust SpeedMPH,PrecipitationIn,Events,Conditions,WindDirDegrees,DateUTC
12:54 AM,57.0,54.0,89,30.26,10.0,East,13.8,-,0.00,,Overcast,90,2013-01-10 06:54:00
1:54 AM,57.0,54.0,89,30.26,8.0,East,12.7,-,0.00,Rain,Light Rain,100,2013-01-10 07:54:00
2:54 AM,57.0,55.0,93,30.22,6.0,East,12.7,-,0.04,Rain,Light Rain,100,2013-01-10 08:54:00
3:54 AM,57.9,55.0,90,30.18,4.0,ESE,13.8,19.6,0.01,Rain,Rain,120,2013-01-10 09:54:00
4:48 AM,59.0,55.4,88,30.16,7.0,ESE,15.0,-,0.04,Rain,Light Rain,120,2013-01-10 10:48:00
4:54 AM,59.0,55.9,90,30.15,7.0,ESE,15.0,20.7,0.05,Rain,Light Rain,120,2013-01-10 10:54:00
5:01 AM,59.0,55.4,88,30.15,7.0,SE,11.5,-,0.00,Rain,Light Rain,130,2013-01-10 11:01:00
5:10 AM,59.0,55.4,88,30.15,7.0,SE,12.7,25.3,0.00,Rain,Light Rain,130,2013-01-10 11:10:00
5:38 AM,60.8,57.2,88,30.14,7.0,SE,13.8,20.7,0.02,Rain,Light Rain,130,2013-01-10 11:38:00
5:54 AM,60.1,57.9,93,30.15,7.0,SE,15.0,-,0.03,Rain,Light Rain,140,2013-01-10 11:54:00
6:27 AM,60.8,57.2,88,30.17,7.0,SSE,6.9,-,0.00,,Overcast,160,2013-01-10 12:27:00
6:36 AM,60.8,57.2,88,30.17,7.0,SSE,8.1,-,0.00,,Overcast,150,2013-01-10 12:36:00
6:54 AM,61.0,57.9,90,30.17,6.0,SSE,10.4,-,0.01,Rain,Rain,150,2013-01-10 12:54:00
7:39 AM,60.8,59.0,94,30.17,7.0,SSE,11.5,-,N/A,Rain,Rain,150,2013-01-10 13:39:00
7:54 AM,61.0,59.0,93,30.18,7.0,SSE,18.4,25.3,0.08,Rain,Light Rain,150,2013-01-10 13:54:00
8:54 AM,62.1,59.0,90,30.17,9.0,SE,15.0,23.0,0.01,Rain,Light Rain,140,2013-01-10 14:54:00
9:54 AM,63.0,60.1,90,30.17,5.0,SE,13.8,-,0.07,Rain,Light Rain,140,2013-01-10 15:54:00
10:02 AM,62.6,60.8,94,30.17,1.8,SSE,12.7,-,0.02,Rain,Heavy Rain,150,2013-01-10 16:02:00
10:07 AM,62.6,60.8,94,30.17,2.5,SSE,12.7,-,0.05,Rain,Rain,150,2013-01-10 16:07:00
10:13 AM,62.6,60.8,94,30.17,6.0,SSE,12.7,-,0.05,Rain,Light Rain,150,2013-01-10 16:13:00
10:35 AM,62.6,60.8,94,30.16,2.0,SSE,13.8,-,0.06,Rain,Light Rain,150,2013-01-10 16:35:00
10:37 AM,62.6,60.8,94,30.16,1.8,SE,12.7,-,0.06,Rain,Light Rain,140,2013-01-10 16:37:00
10:44 AM,62.6,60.8,94,30.16,2.0,SSE,12.7,-,0.12,Rain,Light Rain,150,2013-01-10 16:44:00
10:54 AM,63.0,61.0,93,30.16,3.0,SE,10.4,-,0.15,Rain,Rain,140,2013-01-10 16:54:00
11:13 AM,62.6,60.8,94,30.14,2.0,SE,11.5,-,0.05,Rain,Heavy Rain,130,2013-01-10 17:13:00
11:24 AM,62.6,60.8,94,30.14,4.0,SE,10.4,-,0.08,Rain,Rain,130,2013-01-10 17:24:00
11:32 AM,62.6,60.8,94,30.13,2.5,SE,11.5,18.4,0.08,Rain,Light Rain,130,2013-01-10 17:32:00
11:49 AM,62.6,60.8,94,30.12,1.5,SE,13.8,19.6,0.12,Rain,Rain,140,2013-01-10 17:49:00
11:54 AM,63.0,61.0,93,30.12,1.0,SE,12.7,-,0.22,Rain,Heavy Rain,140,2013-01-10 17:54:00
12:09 PM,62.6,60.8,94,30.11,2.0,SE,12.7,-,0.08,Rain,Heavy Rain,140,2013-01-10 18:09:00
12:21 PM,64.4,60.8,88,30.10,3.0,SE,15.0,19.6,0.10,Rain,Rain,140,2013-01-10 18:21:00
12:26 PM,64.4,60.8,88,30.10,2.5,SSE,12.7,19.6,N/A,Rain,Light Rain,150,2013-01-10 18:26:00
12:34 PM,64.4,62.6,94,30.10,1.2,SSE,10.4,-,0.17,Rain,Heavy Rain,150,2013-01-10 18:34:00
12:42 PM,64.4,62.6,94,30.09,3.0,SSE,12.7,-,0.20,Rain,Light Rain,150,2013-01-10 18:42:00
12:54 PM,64.0,62.1,93,30.06,5.0,SE,11.5,-,0.22,Rain,Light Rain,140,2013-01-10 18:54:00
1:17 PM,64.4,62.6,94,29.99,4.0,ESE,20.7,24.2,0.01,Rain,Rain,110,2013-01-10 19:17:00
1:31 PM,64.4,62.6,94,30.00,9.0,SE,19.6,25.3,0.02,Rain,Light Rain,130,2013-01-10 19:31:00
1:40 PM,64.4,62.6,94,30.00,10.0,SE,15.0,24.2,0.02,,Overcast,130,2013-01-10 19:40:00
1:54 PM,66.0,63.0,90,29.99,10.0,SE,16.1,24.2,0.02,,Overcast,140,2013-01-10 19:54:00
2:00 PM,66.2,62.6,88,29.99,10.0,SE,16.1,23.0,N/A,,Overcast,140,2013-01-10 20:00:00
2:10 PM,66.2,62.6,88,30.00,10.0,SSE,17.3,24.2,N/A,,Overcast,150,2013-01-10 20:10:00
2:44 PM,66.2,62.6,88,29.99,10.0,SSE,18.4,24.2,0.00,,Overcast,150,2013-01-10 20:44:00
2:54 PM,66.0,61.0,84,29.96,10.0,SSE,24.2,36.8,0.00,,Overcast,150,2013-01-10 20:54:00
3:33 PM,66.2,60.8,83,29.90,10.0,SSE,25.3,41.4,0.00,Rain,Light Rain,160,2013-01-10 21:33:00
3:40 PM,66.2,60.8,83,29.93,10.0,South,19.6,41.4,0.00,Rain,Light Rain,180,2013-01-10 21:40:00
3:54 PM,66.9,61.0,81,29.92,10.0,South,15.0,23.0,0.00,,Overcast,170,2013-01-10 21:54:00
4:54 PM,66.0,61.0,84,29.91,10.0,SSE,17.3,26.5,N/A,,Overcast,150,2013-01-10 22:54:00
5:27 PM,66.2,62.6,88,29.90,10.0,SSE,13.8,23.0,N/A,,Overcast,160,2013-01-10 23:27:00
5:54 PM,66.9,62.1,84,29.89,10.0,SSE,16.1,24.2,N/A,,Mostly Cloudy,160,2013-01-10 23:54:00
6:54 PM,68.0,62.1,81,29.91,10.0,South,21.9,33.4,N/A,,Overcast,170,2013-01-11 00:54:00
7:11 PM,68.0,62.6,83,29.93,10.0,South,20.7,27.6,N/A,,Overcast,180,2013-01-11 01:11:00
7:54 PM,66.9,62.1,84,29.96,4.0,SSW,13.8,21.9,0.00,Rain,Light Rain,210,2013-01-11 01:54:00
8:20 PM,64.4,62.6,94,29.97,4.0,South,13.8,-,0.05,Rain,Light Rain,190,2013-01-11 02:20:00
8:33 PM,64.4,62.6,94,29.98,6.0,SSW,13.8,-,0.05,Rain,Light Rain,210,2013-01-11 02:33:00
8:54 PM,64.9,62.1,90,29.96,10.0,SSW,10.4,19.6,0.06,Rain,Light Rain,200,2013-01-11 02:54:00
9:33 PM,64.4,60.8,88,29.97,10.0,SW,9.2,17.3,0.00,,Overcast,220,2013-01-11 03:33:00
9:54 PM,64.0,61.0,90,29.96,10.0,SSW,10.4,17.3,0.00,,Overcast,210,2013-01-11 03:54:00
10:18 PM,64.4,60.8,88,29.96,8.0,SSW,11.5,-,0.00,Rain,Light Rain,210,2013-01-11 04:18:00
10:23 PM,64.4,60.8,88,29.96,7.0,SSW,10.4,20.7,0.00,Rain,Light Rain,210,2013-01-11 04:23:00
10:46 PM,64.4,60.8,88,29.96,5.0,SSW,15.0,19.6,0.00,Rain,Light Rain,200,2013-01-11 04:46:00
10:54 PM,64.4,60.8,88,29.95,4.0,SSW,10.4,20.7,N/A,Rain,Light Rain,200,2013-01-11 04:54:00
11:19 PM,62.6,60.8,94,29.95,8.0,SSW,15.0,23.0,0.01,Rain,Light Rain,200,2013-01-11 05:19:00
11:26 PM,62.6,60.8,94,29.96,2.0,SW,25.3,35.7,0.02,Rain,Heavy Rain,230,2013-01-11 05:26:00
11:33 PM,60.8,57.2,88,29.96,1.2,WSW,19.6,35.7,0.07,Rain,Light Rain,250,2013-01-11 05:33:00
11:42 PM,60.8,57.2,88,29.96,3.0,SW,17.3,26.5,0.07,Rain,Light Rain,220,2013-01-11 05:42:00
11:54 PM,61.0,55.0,81,29.95,10.0,SW,11.5,25.3,0.07,,Overcast,220,2013-01-11 05:54:00